OBJECT A, 65938

Orbit data source: Space-Track

You're viewing an Uncataloged Satellite

Recently launched and/or uncataloged satellites may have evolving metadata. Metadata may include but not limited to: Owner, Maufacturer, Bus, Motor, and Mission.

OBJECT A, 65938 is a satellite owned by Changguang WJ (CN) in SSO that was launched on Sat, 11 Oct 2025 UTC via a YINLI-1 launch vehicle from the Yellow Sea Launch Area, China (YSLA). Unknown objects in Earth's orbit typically refer to objects detected orbiting the Earth but have not yet been identified or cataloged. These objects could be anything from previously untracked satellites, spent rocket stages, debris from satellite collisions, or even natural meteoroids temporarily captured by Earth's gravity.

Loading next visibility...
Identifier
65938, 2025-226A
Orbit
SSO
Country
Flag of CNCN / PRC
Related business
Manufacturer
Changguang WJ
Mission
Operational spacecraft
Bus & Motor
JL-1, Unknown motor
Mass
230 kg wet, ~200 kg dry
Launch date (UTC)
2025-10-11 (2 months ago)
Launch vehicle
YINLI-1
Launch site
Yellow Sea Launch Area, China (YSLA)
Object type
Unknown
Shape & HBR
Unknown shape, 1.1 m
Radar Cross Section
RCS unknown

Expand to show TLE details & history
Last TLE update: 9 hours ago

TLE from 9 hours ago
0 OBJECT A
1 65938U 25226A   25340.92106992  .00013233  00000-0  75448-3 0  9993
2 65938  97.6634  55.2517 0016118  90.5950 269.7128 15.12800456  8597
Epoch: 2025-12-06T22:06Z
TLE epoch observation values (Epoch: 2025-12-06T22:06:20.441Z)
Latitude
0.00006°
Longitude
7.72464°
Altitude
530.811 km
Speed
7.597 km/s
True Right ascension
03h 41m 00s
True Declination
0° 00' 00"
Sunlit
Object was in full shadow at epoch
Visualization orbit readout
Latitude
Unknown
Longitude
Unknown
Altitude
Unknown
Speed
Unknown
Apparent Right ascension
Unknown
Apparent Declination
Unknown
Sunlit
N/A
Visualization observer readout
Local Sidereal Time
05:39:39
Azimuth
Unknown
Elevation
Unknown
Doppler factor
Unknown
Orbital elements
Apogee altitude
535.777 km
Perigee altitude
513.525 km
Semi-major axis
6,902.788 km
Eccentricity
0.00161
Inclination
97.6634°
RAAN
55.2517°
Arg. of periapsis
90.595°
True anomaly
269.52811°
Mean anomaly
269.7128°
Eccentric anomaly
269.62045°
Mean motion
3.78448 °/min
Orbital period
95.13 mins
BSTAR
0.00075448
Loading maneuver chart data...
Computing Atmospheric mass density...
Loading historical data...
Loading historical data...
Loading historical data...
Loading historical data...
Loading historical data...
Loading historical data...
Loading historical data...
Other satellites on launch #226 in the year 2025 (2025-10-11 UTC)

Documentation

Showing up to 5 results
|